Theta_e
328 331 331 329 329 328 326 326 325 325 327 325 323 322 325 329 322 320 329 334 328 330 333 332 333 333 333 332 332 332 336 336 338 340 339 336 336 346 355 355 353 351 348 348 355 361 361 358 359 361 359 359 360 360 362 361 360 359 360 360 359 357 351 344 341 338 335 336 335 334 336 337 336 338 344 350 353 356 359 360 357 353 353 357 359 355 347
327 329 330 330 328 327 327 328 327 327 327 326 325 325 327 329 327 327 333 334 331 332 333 331 332 333 332 332 332 333 335 336 335 335 335 334 337 343 348 351 350 346 344 343 345 352 358 359 359 360 359 358 360 359 361 360 360 359 359 360 360 360 356 349 345 343 339 338 339 338 337 338 338 336 338 343 348 353 357 359 359 357 354 355 360 360 355
325 327 328 328 328 327 325 326 328 327 326 326 326 327 327 327 327 329 331 331 332 333 333 334 333 334 332 333 333 332 333 334 333 333 332 333 335 337 340 346 349 350 353 353 348 345 348 352 358 359 359 359 359 359 359 359 359 359 359 360 360 359 359 356 351 347 343 340 339 341 340 340 340 339 339 340 344 349 354 356 356 357 357 355 356 359 361
322 325 326 326 326 326 324 323 327 326 326 326 326 327 328 327 327 329 326 327 330 334 334 333 333 333 334 333 334 334 332 332 331 333 332 332 334 335 335 341 347 349 353 356 356 352 348 348 353 356 357 359 359 358 358 358 358 358 359 361 361 360 359 359 357 352 349 346 342 341 341 340 341 342 341 341 343 346 349 350 350 354 355 352 350 353 359
321 323 324 324 324 324 322 323 326 327 327 328 327 328 329 329 328 327 325 326 332 334 335 334 333 334 333 334 333 332 332 333 332 332 333 332 332 334 335 339 346 348 348 349 355 361 359 354 352 352 354 357 358 357 357 358 358 357 358 360 361 361 361 360 358 355 353 350 348 345 343 342 342 341 341 342 342 343 345 346 346 349 350 347 345 344 350
320 322 323 323 321 320 323 326 328 329 327 328 327 327 329 330 329 329 328 330 333 334 333 333 334 333 334 334 333 332 333 334 333 332 333 333 332 333 335 336 339 348 351 347 345 352 358 357 355 355 354 355 357 358 356 356 358 357 357 359 361 361 360 359 357 355 353 353 351 349 348 346 345 344 342 342 342 342 345 346 346 347 346 344 345 344 344
321 322 322 321 319 321 325 328 328 328 327 328 328 328 328 329 329 329 330 331 332 333 333 333 334 333 334 334 332 332 332 331 332 332 331 332 332 331 334 335 340 348 354 351 347 347 351 354 356 356 357 357 358 358 357 356 357 357 355 357 359 360 360 358 356 354 352 352 353 353 352 349 348 346 344 343 344 345 347 348 347 346 345 344 345 345 345
320 321 320 320 322 324 327 328 327 327 328 328 327 326 327 328 329 328 329 329 330 332 331 333 333 331 333 334 332 333 331 331 332 331 330 333 333 335 344 352 353 352 348 346 347 346 344 347 353 355 355 358 358 358 357 356 357 356 355 355 358 360 359 357 354 353 350 352 353 353 352 350 348 346 345 345 344 347 349 352 351 350 348 347 348 349 349
320 320 319 321 323 324 325 327 328 329 329 330 327 325 326 329 329 329 330 330 330 329 330 332 332 331 332 333 331 332 331 331 331 330 333 335 332 335 349 356 352 343 335 332 333 333 331 335 345 351 354 356 358 358 358 356 356 357 356 354 355 358 359 357 354 353 351 351 352 351 349 349 347 345 346 347 347 347 348 351 355 357 357 355 354 353 352
318 318 319 320 320 321 323 327 331 333 333 334 333 329 329 330 328 328 329 329 330 330 330 330 331 330 331 331 330 331 330 332 333 333 334 335 331 340 350 351 343 334 329 328 328 329 328 329 337 346 352 355 357 359 358 356 357 358 357 353 352 355 358 357 355 353 351 349 349 348 347 345 345 346 349 349 349 349 348 350 356 360 362 362 358 355 353
318 317 318 319 318 321 325 328 332 332 332 334 334 327 327 332 332 331 332 331 329 331 333 333 332 330 330 331 331 331 331 332 332 331 332 336 340 343 344 341 337 332 328 327 327 327 329 329 331 341 351 355 356 359 358 357 356 357 357 354 353 353 356 357 356 355 352 350 348 347 347 347 348 349 349 350 350 351 350 351 352 356 360 362 363 360 357
317 317 317 318 319 323 328 330 331 329 330 333 329 323 325 337 341 340 340 338 338 343 346 344 338 332 330 331 330 330 333 336 338 338 344 351 352 349 347 344 338 332 328 328 331 339 342 338 337 344 351 355 355 357 358 357 356 356 358 358 356 354 355 357 357 357 355 352 350 349 349 349 349 349 348 349 350 350 350 351 354 356 359 362 363 364 362
315 316 316 317 319 323 327 329 331 330 329 328 325 324 332 340 342 342 342 342 343 348 349 348 344 339 338 337 335 334 340 351 356 358 357 355 349 346 347 346 338 335 338 335 335 345 349 345 345 351 353 354 356 356 357 359 357 357 358 359 358 357 358 359 358 356 354 352 349 349 349 348 347 348 347 349 352 353 355 358 360 360 361 362 363 363 364
314 315 316 316 318 321 323 325 328 329 325 324 327 334 339 338 337 340 342 341 343 345 345 346 348 347 347 345 343 342 346 354 361 360 356 354 351 345 341 337 334 340 349 348 346 352 351 344 348 356 356 355 357 357 358 359 359 359 360 360 360 361 359 357 357 355 353 350 350 349 350 351 351 351 351 354 359 361 362 363 364 363 363 364 363 363 363
314 314 315 316 318 320 319 321 324 325 326 328 333 338 337 333 334 340 342 342 344 344 343 345 347 347 348 348 350 353 355 358 361 360 357 358 358 355 352 350 347 351 358 360 359 361 358 351 349 356 359 359 358 359 360 360 359 359 361 362 362 363 360 356 357 358 356 355 354 352 354 355 355 355 355 357 361 363 362 363 364 365 365 364 363 362 363
314 314 315 317 321 323 321 321 322 323 327 329 331 333 334 332 332 337 340 343 344 343 344 346 347 347 348 346 349 357 359 357 358 359 356 355 358 360 361 360 358 358 362 362 359 359 360 358 356 358 361 360 359 361 363 362 359 360 363 365 366 365 361 357 357 360 361 361 360 359 358 356 355 357 360 360 361 361 361 362 364 364 364 364 363 363 362
317 317 318 321 324 326 325 324 324 325 327 329 328 330 333 332 332 336 339 341 342 342 344 345 346 348 348 348 349 355 356 355 356 357 356 357 360 362 361 359 359 359 361 360 358 357 360 363 363 364 364 363 364 365 366 365 364 364 365 365 363 361 358 354 355 359 364 364 365 365 362 359 358 360 362 364 363 361 360 362 363 363 363 363 362 362 362
318 319 320 321 323 324 324 324 325 325 327 329 330 331 333 334 335 338 340 341 341 342 343 345 346 347 349 351 352 354 355 355 355 357 358 359 360 359 358 357 358 358 359 359 358 358 360 362 364 366 366 366 366 366 366 365 364 363 362 360 357 358 359 357 356 359 362 363 363 364 363 363 362 363 364 364 363 362 362 363 363 363 363 363 362 362 362
318 319 320 320 321 322 322 322 323 324 325 326 328 330 332 335 336 338 340 341 341 340 342 345 347 347 348 350 351 352 353 353 353 355 357 358 358 359 358 357 357 358 358 357 357 357 358 359 360 362 363 364 364 363 362 362 360 360 360 359 358 360 363 362 360 361 362 362 362 364 365 364 364 363 364 363 363 363 364 363 363 363 362 362 362 362 362
317 318 319 319 320 320 319 320 322 322 322 323 327 330 332 335 336 337 339 341 341 340 341 343 345 346 347 348 350 351 350 350 351 352 353 355 356 356 356 356 357 358 357 356 356 356 356 356 357 358 359 360 360 360 360 361 360 360 361 361 361 362 364 364 364 364 364 364 364 365 364 364 363 363 364 363 363 363 362 362 363 363 363 363 363 363 362
316 317 317 318 318 318 318 319 319 319 320 325 330 332 334 335 335 337 339 341 341 341 342 343 344 345 346 347 349 349 349 349 350 350 351 352 353 353 354 355 355 355 355 354 354 354 354 355 355 356 357 358 358 360 361 363 363 362 363 364 365 365 365 365 364 364 363 364 364 363 363 362 361 362 363 362 362 363 363 363 363 363 363 363 363 363 363
315 315 316 317 317 317 318 318 318 319 324 329 331 332 334 336 336 338 338 339 341 341 342 343 344 344 345 346 348 349 349 349 350 350 351 351 352 353 354 353 353 353 353 352 352 352 352 353 353 354 355 355 357 358 359 361 362 362 363 364 363 363 363 363 362 363 363 363 363 363 362 362 362 363 363 363 362 362 362 362 362 362 362 362 362 362 362
314 316 316 316 317 318 319 320 320 322 324 327 329 330 331 333 335 337 338 338 340 341 341 342 344 345 345 346 348 349 349 349 349 350 350 351 351 351 351 351 351 351 350 350 350 350 350 350 350 351 352 352 353 355 356 357 358 359 359 358 357 357 358 358 358 359 359 360 360 360 360 361 361 358 357 359 361 361 361 361 359 358 356 356 355 354 351
315 315 315 315 316 317 318 318 319 320 322 325 327 327 327 328 332 335 337 338 339 340 341 342 344 345 346 346 347 348 348 348 348 349 349 350 350 349 349 350 349 349 348 348 349 348 348 348 348 349 349 350 351 352 353 354 354 354 354 354 353 353 353 354 354 354 354 354 354 354 353 354 353 348 346 348 348 345 344 345 344 342 340 340 339 337 334
314 314 314 315 315 316 317 317 318 319 321 322 325 326 325 325 329 334 337 338 338 339 341 342 344 345 346 347 347 347 347 347 348 348 348 349 349 348 349 348 347 347 347 347 348 348 348 348 348 348 349 349 350 350 351 351 351 352 351 351 351 351 350 351 351 351 350 350 349 349 348 348 348 347 346 346 344 340 336 332 330 329 330 330 330 329 328
313 313 313 314 314 315 316 317 318 319 321 323 325 325 323 323 329 334 337 337 338 339 340 342 343 343 345 345 346 346 346 346 346 347 347 347 348 347 347 346 346 346 346 347 347 347 346 347 347 347 347 348 348 348 349 349 349 350 350 349 348 348 349 349 347 346 343 342 341 343 344 346 347 346 343 343 344 344 343 339 334 333 331 329 327 326 327
313 313 313 314 314 315 316 317 318 319 322 324 324 323 323 326 331 335 336 337 339 340 340 340 341 342 343 344 344 344 345 344 344 346 346 346 346 346 346 346 346 345 345 346 346 346 346 346 347 346 346 346 346 346 346 345 344 343 343 342 340 340 341 340 339 338 337 335 333 332 336 342 346 345 343 343 344 344 343 342 341 341 338 332 328 327 327
312 312 312 313 314 315 316 317 319 320 323 324 322 320 323 330 333 335 336 337 339 339 339 340 341 342 343 344 344 344 344 344 345 345 346 345 345 345 345 345 345 344 344 344 344 345 345 345 346 345 345 345 344 345 345 345 343 341 340 338 338 336 335 336 336 334 332 330 328 329 335 342 344 343 342 343 343 344 342 339 339 340 339 334 329 328 327
312 312 313 313 314 315 316 318 320 321 324 325 323 321 325 331 333 334 335 337 338 338 339 339 340 341 342 343 343 344 344 344 344 345 345 345 345 345 344 344 343 343 343 343 343 343 343 343 343 343 343 343 343 344 344 344 344 344 344 344 343 342 341 341 341 339 335 331 328 331 336 342 344 343 341 340 341 342 341 337 334 337 338 336 330 327 327
313 313 314 314 314 315 316 318 319 320 322 324 324 325 327 331 332 332 333 335 336 337 338 339 340 340 341 342 343 343 343 344 344 345 345 344 344 344 344 343 343 343 343 343 342 342 342 342 342 342 342 342 342 343 342 341 340 340 341 341 342 342 342 342 342 342 340 339 337 337 338 341 341 341 341 341 340 341 339 337 335 337 338 337 333 330 328
315 315 315 315 315 316 317 318 320 321 323 325 326 327 329 330 330 330 331 333 334 334 336 338 339 340 340 341 341 341 341 342 342 342 342 342 342 343 343 343 343 343 343 342 342 342 342 342 342 341 341 340 341 342 342 342 340 339 339 339 339 339 340 341 342 342 342 341 341 340 340 341 340 340 340 340 339 339 338 337 337 337 338 337 336 335 334
316 317 317 317 317 318 319 320 321 323 324 326 327 328 328 328 329 330 331 331 332 332 333 336 337 339 339 339 338 338 339 339 339 340 339 340 340 340 341 341 342 342 342 342 342 342 341 341 341 340 340 340 340 340 341 342 341 340 339 339 338 339 339 340 340 340 340 340 340 340 340 339 339 339 340 339 339 339 338 337 337 338 338 337 337 336 335
318 319 320 320 320 321 322 322 323 324 325 326 328 328 328 328 328 329 329 329 330 331 331 332 334 336 337 337 336 336 336 336 337 337 337 337 337 338 338 339 340 340 340 341 341 341 341 340 340 340 340 339 339 339 339 340 340 340 339 339 338 337 337 339 339 339 339 339 339 338 338 338 338 338 338 338 338 338 337 336 337 338 338 337 337 336 334
320 321 322 321 321 322 323 324 325 325 326 327 328 328 328 328 327 327 327 328 329 329 329 330 330 332 334 334 334 335 335 335 335 335 335 335 335 335 336 336 337 337 338 338 339 339 339 339 339 339 339 339 339 339 339 339 340 340 340 339 338 338 338 338 339 339 338 338 338 337 337 337 337 337 336 337 337 337 336 336 336 337 337 336 337 336 335
322 324 324 323 323 324 324 325 326 326 327 328 328 328 327 327 327 327 327 328 328 328 328 329 329 329 330 331 331 332 332 332 333 333 333 333 333 333 333 333 334 334 335 335 335 336 336 337 337 337 337 338 338 339 338 338 339 339 339 339 339 339 338 338 338 338 337 337 336 336 336 335 335 335 335 335 335 336 337 336 335 335 336 336 335 336 335
323 323 323 324 325 326 326 326 327 327 326 327 326 326 327 327 327 327 327 327 327 327 327 327 327 327 327 327 328 328 329 329 330 330 330 330 330 330 331 331 331 331 331 331 332 333 333 333 334 334 334 334 335 336 337 337 337 338 338 338 338 338 338 338 338 337 336 336 336 335 335 335 335 334 334 334 334 334 335 335 334 335 335 335 335 335 335
323 323 324 326 327 327 327 327 327 327 326 326 326 326 326 325 325 325 325 325 325 325 325 325 325 324 324 325 325 326 326 327 327 327 328 328 327 328 328 328 328 329 329 329 330 330 331 331 331 332 332 332 333 334 335 336 336 336 337 337 337 337 336 336 336 336 336 336 336 335 335 335 335 335 334 334 334 334 334 334 334 334 335 335 335 334 335
321 322 324 324 324 324 325 325 325 325 325 324 324 324 323 323 323 323 322 322 321 321 321 322 322 322 322 322 322 323 323 324 325 325 325 325 325 325 326 326 326 326 327 327 328 328 329 329 330 330 331 331 332 332 333 334 334 335 335 335 335 334 334 334 333 333 334 334 333 333 333 333 333 333 333 333 333 333 333 333 334 334 334 334 334 334 334
316 318 319 320 320 320 321 321 320 321 320 320 320 320 320 320 320 320 320 320 319 318 319 319 319 319 319 319 319 320 320 320 321 321 322 322 321 322 322 323 324 324 325 325 326 326 326 326 327 329 329 329 330 330 331 331 332 332 333 332 332 332 332 331 331 331 331 331 331 331 331 330 330 330 330 330 330 330 330 331 332 332 333 333 333 333 333
313 314 315 316 316 317 317 317 317 317 316 316 316 317 317 317 317 317 318 318 317 316 315 315 315 316 316 316 316 316 317 316 316 316 317 317 318 318 319 320 321 321 322 323 324 324 324 324 325 326 326 327 327 327 328 329 329 329 329 329 330 329 329 329 329 329 329 329 330 330 330 329 328 328 327 327 327 328 328 328 329 330 331 331 331 332 333
313 313 313 314 314 315 315 315 315 315 315 314 314 314 314 314 314 315 315 316 315 314 314 313 313 313 313 313 312 312 313 313 314 314 314 314 315 316 317 317 319 319 320 321 322 323 323 323 323 324 324 324 325 325 325 326 325 326 326 326 326 327 327 327 327 327 327 327 327 328 327 327 326 326 325 325 325 326 326 326 327 328 329 330 330 331 332
313 313 313 313 314 314 314 314 314 314 314 313 313 312 312 312 312 312 312 312 312 312 312 312 313 313 313 312 312 312 311 310 310 311 313 314 314 315 314 315 315 317 318 319 320 321 322 322 322 322 322 322 323 323 324 323 324 324 324 323 323 324 324 324 324 324 324 324 324 324 324 324 324 323 322 323 324 325 326 326 326 327 328 328 329 330 331
313 313 313 314 314 314 314 314 314 313 313 312 311 311 311 310 311 310 310 310 309 309 309 309 310 311 312 314 314 314 314 312 310 309 309 311 312 312 312 312 312 313 315 316 318 319 320 320 320 320 321 321 321 321 321 322 322 321 321 321 322 321 321 321 321 321 321 321 320 320 321 321 321 320 320 322 323 324 325 325 325 325 325 325 326 327 328
313 313 313 313 313 313 313 313 312 312 311 311 310 310 309 309 309 309 309 309 308 308 308 309 310 311 312 313 314 315 315 315 312 310 308 307 307 307 308 308 308 309 311 314 316 317 316 316 316 317 318 318 319 319 318 319 319 319 319 320 320 320 319 319 319 318 318 318 317 317 318 318 317 317 319 321 322 322 322 323 323 323 323 323 323 323 324
312 312 312 312 312 312 312 312 312 311 310 310 309 309 309 308 308 308 308 308 308 308 309 310 312 313 313 313 314 314 314 314 314 312 310 309 307 306 305 304 305 306 307 309 311 313 313 313 313 313 313 314 314 314 315 315 315 316 316 316 316 317 317 317 317 317 316 316 315 315 315 315 316 316 317 318 320 320 321 321 321 321 322 322 322 322 322
313 312 312 312 312 312 311 311 311 310 310 310 310 310 309 308 308 307 307 307 308 308 308 310 311 312 313 313 313 313 312 312 313 312 311 311 309 308 306 306 305 304 304 305 306 308 309 309 310 310 310 311 311 311 311 311 311 312 312 312 312 312 313 313 314 314 314 314 313 313 313 313 313 313 314 316 317 317 318 320 320 321 321 321 321 321 321
314 313 313 313 312 312 311 311 311 311 311 311 311 312 311 310 308 307 306 306 306 307 307 307 308 309 309 311 312 312 312 312 312 312 311 311 309 309 309 309 308 306 305 304 304 304 306 307 308 308 308 309 309 309 308 308 308 308 308 308 309 309 309 309 309 310 310 310 311 311 311 310 310 309 310 311 312 313 315 316 317 317 318 318 319 319 320
313 313 313 313 313 312 312 311 311 311 311 311 311 311 311 311 310 309 308 308 308 308 308 307 307 307 306 306 308 309 310 311 312 311 311 311 309 309 309 310 310 309 307 306 305 304 304 305 306 307 308 308 308 308 307 307 307 307 306 306 306 306 307 307 307 307 307 307 307 307 307 308 307 307 306 305 306 307 308 310 311 313 314 315 316 316 316
312 312 312 311 312 312 312 311 311 311 310 310 310 310 309 310 310 309 309 309 309 309 309 308 308 308 307 306 306 307 307 309 310 311 310 310 310 308 308 308 309 309 309 308 307 305 304 304 306 307 307 307 307 307 307 306 307 307 306 306 306 306 305 306 306 306 306 306 306 305 305 305 305 305 305 304 303 303 302 303 304 305 307 310 312 313 314
311 311 310 310 310 310 310 310 310 310 309 309 309 308 308 308 308 308 308 308 308 307 307 307 307 307 308 308 308 308 308 308 309 309 309 309 309 308 308 307 308 309 309 309 308 307 306 306 306 307 306 306 306 306 306 306 306 306 306 306 306 306 306 306 305 305 305 305 305 305 305 305 305 304 304 304 304 303 303 302 301 301 301 302 304 306 308
310 310 310 309 309 308 308 308 308 309 309 308 308 308 307 307 307 306 306 306 306 306 306 306 306 306 306 307 307 307 307 307 307 308 308 309 309 309 308 308 308 308 308 308 308 307 307 306 306 306 306 306 306 306 306 306 306 305 305 305 305 305 305 305 305 305 305 305 305 305 305 305 305 305 305 305 305 304 304 304 303 303 302 301 301 301 301
310 309 309 309 308 308 307 307 307 306 307 307 307 307 306 306 306 305 304 304 304 305 305 305 304 304 304 304 305 306 306 306 306 306 307 307 307 308 308 307 308 308 307 307 307 307 306 306 306 306 306 306 305 305 305 305 305 305 305 305 304 304 304 304 304 304 304 305 304 304 304 304 304 304 304 304 304 304 304 304 304 304 303 303 303 302 302
Wind_Speed
21 11 5 9 9 12 16 19 23 25 25 26 25 21 17 13 10 8 9 12 12 5 9 10 9 8 8 8 9 9 12 11 8 8 6 7 9 11 11 13 15 15 16 18 21 24 26 27 29 30 31 32 34 34 34 35 35 35 37 40 42 43 46 47 46 46 45 44 44 45 46 46 46 45 44 41 39 37 35 35 36 36 35 34 34 37 40
20 16 10 9 11 12 11 13 18 23 25 25 24 23 21 17 14 10 8 12 14 11 8 9 10 8 6 5 5 7 10 11 9 8 6 8 13 15 13 13 14 14 14 14 17 21 25 26 29 30 30 31 33 33 32 33 34 34 35 39 41 42 45 48 48 47 46 44 43 44 45 46 46 45 45 45 43 40 39 38 36 36 36 35 34 35 38
14 15 12 11 12 12 12 12 14 18 23 24 22 21 20 18 16 15 12 10 10 10 10 8 10 10 7 4 4 3 5 7 6 6 7 9 12 13 12 12 12 12 12 13 13 15 19 24 28 30 31 31 31 31 31 32 33 33 33 36 40 43 44 46 48 48 48 46 45 44 45 46 46 45 45 46 45 43 41 41 39 38 38 37 36 34 35
9 12 14 14 12 12 14 15 14 15 17 19 18 18 18 17 16 16 15 11 7 7 9 9 8 8 7 6 7 8 9 8 6 6 7 7 8 8 8 8 8 8 9 11 12 12 14 19 25 29 31 30 30 31 31 31 31 32 32 34 38 42 42 43 46 48 49 48 47 46 46 46 47 46 45 46 46 45 45 45 43 41 40 41 41 38 36
8 12 15 16 14 12 13 14 15 16 14 14 14 15 16 17 16 13 12 10 8 7 9 10 10 10 10 10 11 12 11 10 9 9 10 9 9 10 9 9 8 7 6 7 9 11 13 15 20 25 29 30 32 32 31 30 30 32 33 33 35 39 42 43 45 47 47 48 48 47 47 47 47 46 46 46 47 48 48 47 46 45 44 45 45 44 41
7 11 13 13 15 14 10 9 13 16 16 14 14 13 14 14 12 10 9 8 8 9 9 10 11 10 10 11 13 14 11 10 10 11 11 12 12 11 12 11 9 6 5 5 5 8 11 13 15 20 25 28 31 31 30 31 32 33 34 33 34 38 41 44 45 46 46 46 46 46 46 46 46 46 46 46 47 48 47 47 47 48 48 47 47 47 46
7 8 9 11 14 12 7 6 11 15 17 16 16 15 14 14 12 12 11 8 6 6 6 7 9 9 9 10 11 11 11 13 13 14 14 14 13 13 13 12 9 7 6 7 7 6 8 11 13 18 22 24 26 28 31 32 33 34 35 34 35 37 41 43 45 45 45 45 44 44 44 44 44 44 45 45 46 46 46 46 47 48 48 48 48 47 47
7 7 9 10 6 2 4 7 9 11 15 18 18 17 17 17 15 14 14 13 11 9 7 7 8 8 8 8 10 13 15 15 15 16 16 13 13 12 8 5 7 9 10 11 10 9 9 10 11 15 19 22 25 27 29 31 33 34 35 36 36 38 40 43 44 45 45 44 43 43 42 41 41 41 42 44 44 44 43 43 44 45 46 47 47 47 47
7 7 9 9 5 2 5 7 5 4 8 11 13 14 16 18 17 15 13 13 13 12 12 12 12 11 9 9 10 15 17 17 17 18 17 15 15 12 5 5 11 17 20 21 19 17 15 13 11 13 16 20 24 26 28 30 32 33 35 38 39 39 41 43 43 42 43 42 42 42 41 40 40 39 40 41 42 42 42 42 40 39 40 42 43 44 45
8 8 8 10 10 9 8 7 5 3 3 3 3 6 9 12 17 18 15 14 13 12 12 13 13 11 9 8 9 13 15 15 16 17 17 17 16 11 8 12 18 21 23 23 21 18 17 16 13 13 15 19 24 26 28 29 31 32 35 38 40 41 41 41 40 40 40 40 41 40 40 39 38 38 38 39 40 40 41 41 38 35 33 35 37 40 42
9 9 9 10 11 9 7 8 8 7 5 1 2 6 6 4 7 10 10 11 13 11 11 12 11 10 9 7 8 11 14 16 18 18 15 12 10 9 12 16 18 20 22 22 20 18 18 18 15 13 16 19 22 26 27 28 30 33 35 37 39 41 40 39 38 38 37 38 39 39 39 38 38 37 37 37 37 38 38 39 38 36 33 33 34 36 38
10 11 10 9 8 5 3 5 6 4 4 4 6 9 5 3 4 3 3 3 3 4 7 6 7 9 8 7 9 10 10 10 10 9 7 6 6 7 10 13 16 19 20 19 16 13 14 16 15 13 16 19 22 25 26 27 30 32 33 33 35 37 37 36 35 36 36 36 37 36 36 36 35 35 35 35 35 35 35 35 34 34 33 32 32 32 32
11 13 11 9 9 6 3 5 8 6 2 6 8 6 2 6 7 7 7 6 7 10 10 6 4 6 7 10 11 8 5 6 6 7 7 6 8 8 8 11 16 15 14 15 14 12 13 16 13 12 16 19 21 24 26 27 28 28 29 30 31 32 33 33 33 34 34 34 34 33 32 32 32 32 33 33 32 32 31 30 30 30 30 29 30 30 29
10 11 11 10 9 6 7 8 7 8 5 6 4 3 1 6 8 8 8 9 10 10 10 8 8 10 12 13 12 7 3 2 4 4 2 3 5 8 12 15 16 11 9 11 11 10 15 17 13 13 16 19 20 22 24 26 24 23 23 26 27 28 30 30 30 30 31 31 31 30 29 29 29 30 31 29 28 27 26 26 26 27 27 27 26 27 27
9 10 11 11 8 5 8 11 6 7 6 0 4 0 3 8 10 7 7 8 9 10 10 9 10 12 13 12 10 7 3 1 2 2 1 1 1 5 8 9 8 6 6 5 5 6 9 11 13 15 16 18 19 20 21 22 21 19 20 22 24 25 26 27 26 26 27 27 28 27 27 27 27 27 28 27 25 25 25 24 24 24 25 25 24 24 25
9 10 11 7 2 2 5 7 6 7 6 5 8 5 7 9 9 7 6 7 8 10 11 10 10 12 14 13 9 6 5 5 2 1 2 2 1 0 2 1 1 2 3 3 5 5 4 5 10 13 15 16 18 17 17 18 18 18 18 19 20 21 22 22 22 22 22 22 23 23 23 24 25 24 23 23 23 24 24 22 22 23 23 23 22 23 25
6 7 6 3 7 8 5 4 4 7 11 14 12 9 9 11 10 9 8 8 9 10 11 11 11 11 11 11 9 7 7 7 5 3 2 1 2 3 2 1 2 2 2 2 2 3 5 5 7 10 12 15 17 16 15 16 17 18 18 17 17 17 17 18 18 19 19 19 19 19 19 20 21 21 20 19 19 20 19 18 20 22 21 21 22 23 24
7 8 9 9 8 8 8 7 9 13 16 16 15 12 12 12 12 11 10 9 9 11 11 11 11 11 10 10 8 6 6 5 4 3 2 4 4 3 2 2 3 4 4 5 5 6 6 6 7 10 11 13 15 14 12 14 17 17 16 16 16 15 14 15 16 17 18 17 16 16 16 16 16 17 17 17 17 16 16 17 19 20 19 19 21 22 24
7 5 6 8 8 9 12 14 14 14 13 13 14 15 15 15 16 15 13 12 11 11 10 10 10 10 10 10 8 6 6 6 5 4 4 3 4 4 4 4 3 4 6 7 7 7 7 7 8 10 11 12 12 12 11 13 14 14 14 14 14 14 13 13 14 15 16 16 15 15 15 14 13 13 13 14 16 16 16 17 17 17 18 18 19 20 21
9 8 10 13 16 16 17 17 16 16 16 15 15 16 17 17 18 18 16 15 14 13 12 11 10 10 10 11 9 7 8 8 7 7 6 5 4 5 4 4 4 5 6 8 8 8 8 8 8 9 11 11 10 10 11 10 10 10 12 12 12 13 12 12 13 14 14 14 14 14 13 13 12 12 11 12 14 14 15 17 18 17 17 17 17 18 19
11 11 12 15 17 17 17 19 21 19 18 17 18 18 18 19 20 19 17 16 15 14 13 12 11 11 11 10 10 9 9 8 8 8 8 8 7 6 5 6 6 7 7 8 9 8 9 9 9 9 10 10 10 11 12 13 12 12 13 14 14 14 13 12 12 13 13 14 14 12 12 13 14 15 15 15 15 14 15 18 20 19 18 18 17 17 17
10 11 11 11 11 11 13 18 19 16 14 15 17 18 18 19 20 20 19 18 16 14 12 12 12 12 11 10 10 10 9 9 9 9 9 9 8 8 8 8 8 8 9 9 10 10 9 10 11 11 11 11 11 11 12 14 15 15 16 16 15 14 13 12 12 12 12 14 13 12 12 12 13 16 17 17 17 16 16 17 18 18 19 20 20 21 21
11 11 11 11 10 11 14 18 18 16 15 17 18 17 17 19 22 22 21 19 17 15 13 12 12 12 11 10 10 9 8 8 7 7 9 9 9 9 9 9 10 10 10 10 10 10 9 9 10 11 11 11 12 12 11 12 13 14 16 15 14 13 12 14 15 13 12 14 14 12 12 12 11 11 13 15 16 15 15 15 15 16 18 19 20 21 21
13 15 16 15 15 16 20 23 24 21 19 18 19 19 19 22 23 23 21 19 17 15 13 11 11 10 10 10 10 9 8 7 7 8 9 10 10 11 12 12 13 13 12 12 12 11 11 11 11 12 11 11 12 12 11 11 11 13 13 14 14 13 13 14 15 14 13 14 13 11 12 12 11 9 7 8 10 9 9 10 10 10 11 11 12 12 11
18 20 21 20 21 22 24 26 26 24 22 21 20 21 23 25 24 23 21 19 16 14 13 11 8 7 7 8 9 9 9 9 10 10 11 11 12 14 14 14 15 15 15 14 14 14 14 13 13 14 14 13 13 14 14 13 13 14 14 15 15 15 15 15 15 15 15 15 15 14 13 13 11 10 8 7 6 5 4 4 4 5 6 5 4 4 6
22 22 23 23 25 26 26 25 25 23 21 20 19 20 24 26 24 22 20 19 16 14 13 11 9 7 7 9 10 9 9 10 12 12 12 13 14 15 16 16 16 17 17 17 16 16 16 16 15 15 16 15 14 15 16 15 15 15 16 16 17 17 16 16 16 17 18 17 17 16 15 13 11 8 8 8 8 6 5 4 2 1 2 1 1 4 7
22 23 23 22 23 26 27 26 26 23 20 19 20 22 24 23 20 19 20 18 15 13 12 12 10 9 9 9 11 11 10 12 15 15 14 16 17 17 18 19 19 19 20 20 19 18 18 18 17 17 17 16 15 15 15 15 16 17 19 20 21 20 20 19 19 19 17 16 16 15 15 13 11 8 8 8 7 6 5 4 2 1 1 2 5 8 9
25 26 26 24 24 25 25 23 23 21 20 21 22 22 21 19 17 18 17 15 13 12 13 13 11 11 11 11 11 14 15 16 18 18 18 18 19 20 20 20 21 21 21 21 21 20 20 19 19 18 18 17 16 16 14 15 16 17 17 18 18 19 19 18 17 16 15 15 16 15 14 12 10 8 8 8 7 6 5 3 3 3 3 5 8 9 9
27 27 28 28 28 27 23 21 20 19 19 19 18 19 20 19 17 16 14 13 12 12 13 14 13 14 16 15 15 18 20 21 22 22 22 21 20 21 21 21 22 22 22 22 21 20 19 19 19 18 17 16 15 15 14 14 14 14 14 14 14 14 14 14 13 12 12 13 14 14 14 12 10 9 8 8 8 7 5 4 4 4 5 8 11 12 10
27 27 29 30 29 26 25 24 22 20 20 20 19 20 19 14 11 9 9 11 11 12 13 15 17 19 20 18 18 20 20 21 22 24 25 25 23 22 23 23 23 24 23 23 22 21 21 20 19 18 16 15 14 14 14 15 15 15 14 14 13 13 13 13 12 12 11 11 12 12 12 11 10 9 9 8 8 7 6 7 7 7 7 9 13 14 14
23 25 28 29 28 26 26 24 21 20 20 18 15 14 12 11 11 9 8 9 8 8 10 13 18 23 23 22 23 25 25 25 25 25 26 26 24 23 23 24 24 25 24 23 22 22 21 20 19 18 16 15 15 14 14 14 14 15 15 15 15 15 16 15 13 13 12 12 12 12 11 10 10 9 9 8 7 7 6 6 7 6 6 9 10 11 13
22 22 24 26 26 25 24 23 21 20 17 14 12 13 14 15 14 13 14 13 11 10 8 9 15 23 28 27 26 26 27 28 29 28 27 26 24 23 23 24 24 24 23 22 21 21 20 20 19 18 16 15 14 14 13 13 13 13 14 14 14 15 16 15 14 13 13 12 12 11 11 10 9 8 8 7 7 6 5 6 6 5 6 8 8 8 13
21 19 20 23 23 22 21 21 20 18 18 20 20 19 20 20 21 22 23 22 20 18 17 15 14 18 26 31 30 27 27 28 27 27 27 26 24 23 23 22 22 22 21 21 20 19 19 19 18 17 16 15 14 13 12 12 13 12 12 12 13 14 15 15 14 13 13 12 11 10 10 9 9 8 8 8 7 6 5 5 5 5 6 8 9 9 13
22 19 20 24 24 23 21 19 19 21 21 21 22 24 24 23 24 26 27 26 25 23 22 22 21 19 23 31 33 31 30 29 29 28 27 26 26 25 22 20 20 20 20 20 19 18 19 19 17 15 14 13 13 13 12 11 11 12 12 12 12 13 14 14 14 13 12 11 11 10 9 9 8 8 8 7 7 6 5 5 5 6 6 8 10 11 14
16 16 17 19 19 19 18 18 21 23 21 19 23 26 25 24 25 28 28 27 27 26 25 27 26 25 28 33 34 31 29 28 28 28 26 26 26 26 23 22 21 21 22 22 20 19 19 19 18 15 13 12 12 13 13 12 10 11 12 12 12 12 12 12 12 12 11 11 10 9 8 8 8 8 8 7 6 6 6 6 7 7 7 8 10 11 13
14 15 14 12 13 17 19 20 23 25 25 25 26 27 28 29 32 33 32 28 27 28 28 29 30 30 32 34 35 34 31 29 28 27 26 25 25 24 24 24 23 22 22 23 21 19 19 19 19 16 15 14 14 14 15 14 12 11 12 12 12 12 11 11 11 12 11 10 9 9 8 7 7 7 7 7 6 7 7 7 8 9 8 8 9 10 10
16 14 14 14 18 23 23 22 24 28 30 30 30 30 32 35 37 38 36 33 31 30 31 32 33 33 32 33 34 34 33 31 30 29 28 27 26 25 26 27 25 23 23 22 19 17 17 19 19 18 17 16 15 14 14 15 13 12 12 12 12 12 12 12 13 13 13 12 11 10 9 9 8 7 6 5 6 7 7 7 8 10 9 8 8 8 9
31 29 33 33 33 35 35 32 32 35 36 36 35 35 36 38 41 41 40 38 37 37 37 36 36 36 34 33 34 33 32 30 30 29 29 29 30 29 28 28 26 25 23 19 17 17 17 16 17 19 18 17 16 15 16 16 14 13 13 13 12 13 13 13 14 15 14 13 13 12 11 10 10 8 6 5 5 5 6 6 7 9 9 9 9 8 8
45 45 47 45 43 44 46 44 42 43 44 44 44 42 40 41 43 44 42 40 39 39 39 39 39 38 37 37 37 36 34 32 32 32 31 32 34 34 33 30 28 25 22 18 18 21 21 19 18 19 19 17 16 16 16 17 15 14 13 13 13 14 15 15 14 14 14 14 13 13 12 11 11 10 9 8 7 7 7 8 7 7 8 10 10 8 7
53 52 53 50 47 47 48 48 47 47 47 47 46 44 43 42 43 43 42 40 38 38 38 39 39 39 38 38 38 37 36 35 36 36 34 34 35 36 35 33 30 26 24 21 20 21 23 23 23 22 21 21 20 18 18 18 17 16 15 15 15 15 16 16 15 14 14 13 13 12 12 12 13 12 12 12 11 10 9 8 7 6 6 8 8 7 6
51 50 50 50 48 46 46 47 48 48 47 46 45 43 42 41 41 41 40 38 37 37 37 38 38 37 37 36 36 36 35 35 35 35 35 35 36 36 35 33 29 25 23 22 21 20 21 23 24 24 24 23 22 20 19 19 19 18 19 19 18 18 18 17 17 16 15 14 13 13 13 13 14 14 14 14 14 13 11 9 7 6 5 4 3 3 4
44 44 44 45 44 43 43 45 46 46 46 44 42 40 39 38 38 38 38 37 36 36 35 35 35 34 34 34 34 34 34 33 33 33 33 33 33 33 32 30 27 24 23 22 22 21 21 22 22 23 23 23 21 20 20 20 20 20 21 22 22 21 21 20 19 18 17 16 15 15 15 15 15 15 15 15 15 14 12 10 8 7 5 3 2 2 1
38 39 39 39 40 40 41 42 43 43 42 41 39 38 37 36 36 36 36 36 36 36 34 33 32 31 31 31 30 29 29 29 30 31 32 31 30 30 29 26 25 24 23 22 22 22 23 22 22 21 20 20 20 20 21 21 21 22 23 23 23 23 22 22 21 20 19 18 18 17 17 17 16 16 15 15 15 15 13 11 10 9 9 8 6 4 3
36 36 36 36 37 38 38 38 39 39 38 37 35 35 35 35 34 34 34 34 34 35 34 33 31 30 30 29 28 27 25 25 25 27 29 31 30 29 27 25 24 23 22 22 23 23 23 23 22 20 19 19 20 21 22 22 23 23 23 23 23 23 23 22 22 21 21 20 19 19 18 18 18 17 15 14 14 15 15 13 11 11 11 11 11 9 7
33 33 33 33 34 35 35 35 34 34 33 32 32 32 32 32 31 31 30 30 30 30 30 29 27 26 25 25 25 25 24 24 23 23 25 28 29 28 26 25 25 23 22 21 22 22 22 22 21 20 20 20 21 22 23 24 24 24 24 23 22 22 22 22 21 21 21 21 21 21 20 19 19 18 15 13 12 13 14 13 12 11 11 11 11 12 11
27 28 29 30 30 30 30 29 29 29 29 29 28 27 27 28 28 27 27 26 26 26 25 25 24 22 21 21 20 21 22 22 22 22 22 23 23 23 23 23 24 23 22 22 21 21 21 21 21 21 21 22 23 23 24 24 23 23 23 23 22 22 21 21 20 20 20 20 20 21 21 21 21 20 19 17 16 15 14 13 12 11 11 11 12 12 11
22 23 24 25 25 25 25 25 25 25 25 25 24 23 23 24 25 25 24 24 24 23 23 22 21 21 20 19 19 19 19 19 19 19 19 18 18 19 19 19 19 20 21 22 21 19 18 20 22 22 22 22 23 23 23 23 23 23 23 22 22 22 21 20 20 19 19 19 19 19 19 20 21 21 21 21 20 19 17 16 15 13 12 12 12 12 12
21 21 21 21 21 22 22 22 22 21 21 20 20 19 20 21 22 22 22 22 22 21 21 21 20 19 18 18 18 18 17 17 17 17 16 15 14 15 16 16 15 15 16 18 19 18 17 19 21 22 21 21 21 21 21 21 22 22 22 22 22 21 21 20 19 19 19 20 20 20 19 19 19 20 20 21 21 21 20 20 19 17 15 14 13 12 12
19 20 20 20 20 20 20 20 20 19 19 18 18 18 18 18 19 19 19 18 18 18 18 19 19 18 17 16 16 16 16 16 16 15 14 13 13 13 13 14 14 14 14 14 15 16 16 18 19 20 20 19 20 20 20 20 20 20 20 20 20 20 20 20 19 19 19 19 19 19 19 19 19 19 19 19 19 20 21 21 21 20 18 17 15 14 13
17 18 18 19 19 19 19 19 18 18 17 17 17 17 17 17 18 18 17 16 15 16 16 16 17 17 16 15 15 15 14 14 13 12 12 13 13 12 12 12 13 14 14 13 13 14 15 16 17 18 17 17 18 18 18 18 19 19 19 18 18 18 18 18 19 19 19 18 18 18 18 17 17 17 17 17 17 18 19 19 20 20 20 19 18 17 16
16 16 16 16 17 18 18 18 18 17 17 16 16 15 15 15 16 16 16 15 15 14 14 14 15 15 14 14 13 13 13 12 12 11 10 10 11 11 11 11 12 13 13 12 12 13 13 14 15 15 15 15 16 17 17 17 16 17 17 17 17 17 17 16 16 17 17 16 16 16 16 15 15 15 15 15 15 15 15 16 16 18 19 20 20 19 18
14 14 14 13 13 14 15 15 16 16 16 15 15 15 14 14 14 15 15 16 15 14 13 13 14 14 14 13 12 12 12 12 12 11 10 10 10 10 10 10 10 11 11 11 11 12 12 13 14 14 14 14 13 14 14 14 14 14 14 14 14 14 15 15 15 15 14 14 14 14 14 13 13 12 12 12 12 12 12 12 13 13 14 15 16 17 18
Wind_Direction
244 248 294 307 276 230 215 214 211 206 205 207 209 215 214 204 217 225 187 202 228 196 144 160 163 151 148 156 163 146 133 139 139 133 150 174 173 166 162 167 173 177 183 190 195 198 200 202 203 203 205 206 205 205 204 203 203 201 200 200 202 208 216 220 222 225 226 226 226 226 225 226 228 227 224 222 220 218 217 221 227 230 226 222 227 237 242
242 245 246 257 260 245 235 237 226 212 207 208 209 213 215 211 217 227 197 192 215 218 187 161 153 160 175 174 164 142 141 150 146 143 170 181 168 158 154 163 169 171 179 190 198 202 202 203 202 203 205 206 206 206 204 203 204 203 202 203 203 205 213 220 222 225 227 227 227 227 226 226 228 228 226 225 224 221 220 221 224 228 229 224 221 228 239
245 246 240 241 250 244 235 241 240 222 210 208 209 210 213 214 214 217 211 199 202 213 221 207 172 170 189 215 225 221 195 183 165 163 184 181 168 162 160 165 169 172 180 189 199 208 210 207 203 203 205 205 205 205 204 204 203 202 203 205 205 207 211 217 221 224 226 227 227 228 227 227 228 229 227 226 226 224 223 223 225 227 229 229 225 223 229
247 244 233 229 237 242 237 233 234 230 217 210 210 209 209 212 213 214 217 217 206 191 206 229 227 213 222 238 244 252 253 248 240 229 221 207 194 192 186 177 177 181 189 197 205 215 218 212 207 206 205 204 203 204 204 203 202 202 202 204 206 208 210 214 219 223 226 227 228 228 228 228 228 229 229 228 227 226 226 228 229 228 229 232 233 229 224
241 235 228 226 230 236 235 228 224 226 225 222 219 212 211 213 213 216 220 221 223 206 198 217 231 231 234 239 242 246 249 252 254 256 255 249 237 222 209 202 206 216 218 211 209 211 213 214 213 210 207 205 204 203 203 201 200 202 203 203 206 209 210 213 219 223 226 228 229 229 230 230 230 230 230 230 230 229 229 231 232 231 232 235 238 238 233
237 221 213 217 225 229 226 217 221 228 230 232 230 221 215 215 215 225 233 226 223 221 215 218 224 227 233 238 238 237 241 251 259 260 258 256 251 238 227 226 229 231 231 233 236 228 219 217 215 210 208 209 207 203 201 200 200 202 203 203 206 210 212 215 220 224 227 229 230 230 231 231 231 232 232 233 233 232 232 232 233 234 236 238 239 241 240
248 218 194 203 221 231 235 221 221 228 231 234 240 240 234 229 227 231 238 237 228 223 223 226 231 236 238 240 240 240 245 253 256 256 252 248 248 248 250 252 246 235 242 259 274 268 233 216 212 210 208 207 205 203 201 201 200 201 203 203 206 211 215 217 221 225 228 230 230 230 231 232 233 234 235 235 235 234 232 234 236 238 239 241 241 242 243
254 237 208 203 212 245 254 234 221 220 223 224 229 236 236 234 234 235 236 237 236 233 231 229 234 241 242 244 248 251 255 257 257 258 257 250 242 245 256 254 227 235 263 281 285 277 255 229 214 212 211 205 202 203 202 201 201 201 203 204 206 211 216 219 221 225 228 228 229 230 232 234 235 236 236 237 237 235 233 233 237 240 242 243 243 243 244
237 248 227 212 211 208 210 214 207 202 215 219 225 233 233 230 232 237 239 239 238 236 233 231 233 238 241 243 245 246 249 249 249 254 258 257 253 255 265 259 252 264 281 288 287 281 273 257 229 216 213 207 202 201 201 201 201 201 202 206 208 211 217 221 223 225 227 228 229 231 232 234 236 237 236 237 238 237 236 234 233 236 239 242 243 244 245
227 239 233 220 223 225 211 195 174 174 231 253 237 231 225 217 219 226 233 236 238 240 239 237 235 236 242 246 247 247 246 244 245 247 248 252 254 251 247 255 264 274 282 286 286 282 276 269 249 222 211 207 202 200 200 200 200 199 203 208 211 212 217 221 224 226 228 229 230 232 234 235 236 236 236 236 237 237 238 236 232 230 231 236 242 245 247
225 226 229 223 221 225 217 193 172 178 210 220 160 205 212 199 204 218 233 237 234 236 246 246 241 238 242 247 248 247 246 243 241 239 238 241 242 243 254 262 268 273 276 280 283 280 274 272 261 227 207 205 203 200 199 199 200 201 204 208 212 214 217 221 225 226 228 231 232 233 234 234 235 235 235 236 237 238 239 239 237 234 230 232 237 242 248
226 225 227 225 226 237 225 180 147 137 186 183 183 200 199 56 48 46 2 302 283 316 315 288 245 230 239 258 254 251 261 265 245 214 193 192 214 246 270 276 275 274 275 276 276 274 269 267 255 223 204 202 202 202 200 199 201 204 204 206 212 216 217 219 223 225 228 231 232 233 234 234 235 236 238 238 238 240 241 241 240 237 232 230 233 237 242
227 229 226 225 230 245 243 173 133 101 187 213 200 194 124 50 43 40 23 1 5 5 349 329 280 259 284 298 285 271 298 347 42 102 143 197 233 253 269 277 277 277 275 271 263 249 247 249 235 206 198 199 200 202 201 199 201 203 203 205 210 214 215 217 221 225 229 233 235 235 236 238 238 238 239 238 236 237 237 235 234 234 232 229 231 235 238
220 222 223 229 229 235 252 229 168 138 190 217 186 174 36 30 37 41 22 2 4 3 345 327 309 299 303 307 309 311 305 334 51 81 137 221 260 276 281 281 277 269 262 265 257 241 244 242 219 193 195 198 197 198 199 199 200 199 200 202 206 211 215 218 220 225 230 233 236 236 235 235 236 235 235 233 228 226 227 226 227 231 231 229 232 237 240
218 218 219 229 226 210 239 254 231 176 190 9 37 326 319 6 19 28 17 2 1 355 340 326 312 304 300 299 310 330 327 307 68 73 50 39 310 297 303 297 276 247 237 243 229 228 243 234 206 190 189 190 190 193 196 197 195 192 194 197 199 206 215 218 217 220 223 227 230 231 229 229 230 232 232 229 223 222 225 225 226 228 230 230 234 239 242
212 216 212 218 264 276 245 252 245 216 225 331 349 323 315 333 345 3 2 351 352 345 332 323 312 303 295 286 280 282 286 292 301 292 304 307 271 83 40 17 214 195 201 215 220 217 210 197 191 185 182 182 182 183 188 190 188 186 185 186 189 196 208 213 211 209 211 214 218 220 222 226 227 227 226 225 223 227 230 228 227 229 232 234 237 241 244
244 253 249 290 338 328 301 266 276 299 317 325 326 329 326 318 326 348 344 332 339 336 324 318 310 300 294 283 269 262 267 272 273 271 254 185 160 131 113 113 103 114 137 160 180 160 135 139 163 169 171 173 170 170 175 175 173 174 175 179 187 195 203 210 207 200 198 200 203 206 212 220 223 220 219 219 221 226 227 226 227 231 233 236 239 241 245
294 288 272 271 284 292 301 315 320 323 328 327 325 331 333 324 325 333 330 326 329 323 317 314 304 298 301 295 278 268 268 262 258 257 210 167 152 137 128 120 99 99 103 104 111 121 119 125 140 148 157 164 164 166 171 171 172 175 178 184 190 189 189 195 194 190 191 194 197 199 201 206 210 210 211 214 218 221 221 223 228 232 233 235 239 242 247
282 273 257 258 267 288 313 320 314 308 311 317 319 321 324 323 320 319 318 319 317 313 314 311 299 293 297 293 280 263 256 255 254 251 230 176 144 142 139 127 113 111 110 114 124 128 124 125 135 141 147 158 163 162 164 169 175 176 176 179 179 173 171 177 180 182 185 188 190 191 190 191 196 201 205 210 214 217 221 225 230 234 236 236 239 243 249
257 260 268 280 288 296 302 301 295 295 303 313 316 316 318 318 314 312 312 312 313 315 314 309 303 297 289 284 278 262 249 249 251 247 235 213 188 175 154 134 130 128 123 125 131 135 132 131 134 137 139 143 144 143 145 155 162 162 159 159 157 155 157 161 165 170 176 176 176 179 180 181 188 196 204 211 215 216 221 225 227 230 233 237 242 247 251
248 249 256 272 284 290 285 276 273 279 295 313 321 320 317 312 308 308 309 308 307 310 310 309 305 296 284 275 270 260 249 243 243 240 232 219 203 185 166 154 148 138 127 124 128 130 128 127 127 125 124 122 121 124 132 138 141 143 142 141 142 145 146 149 152 158 165 166 165 169 172 176 188 196 198 201 203 205 213 221 225 227 230 234 237 242 248
241 240 241 252 269 276 269 265 268 280 304 320 321 319 315 309 305 305 305 303 299 297 300 303 296 285 278 269 256 249 242 235 231 228 220 207 189 171 163 160 154 143 132 126 124 122 121 120 119 116 113 113 112 115 125 132 134 134 133 132 134 136 135 138 141 142 150 155 156 157 161 168 186 199 202 202 200 200 209 220 226 231 236 241 247 252 257
250 255 257 264 275 278 276 280 288 301 312 311 307 308 307 303 301 301 299 297 297 295 294 296 290 277 266 254 242 234 225 214 208 208 203 192 179 168 160 152 144 137 132 126 120 115 113 110 109 108 108 109 109 111 115 120 122 125 125 125 126 127 131 141 145 141 140 145 149 155 161 169 182 195 206 212 212 213 223 232 238 243 246 249 254 257 260
267 264 262 270 277 274 273 281 288 293 297 298 297 299 297 293 294 295 291 287 289 288 284 284 281 266 249 236 228 218 200 184 184 191 188 176 166 158 150 143 135 129 125 119 113 108 103 100 99 97 96 98 102 105 107 110 114 116 119 121 121 120 123 132 133 128 126 131 135 138 145 151 153 150 163 192 200 203 215 223 230 238 240 243 249 255 265
261 262 262 266 270 270 271 274 276 278 282 285 287 290 289 286 285 284 279 275 276 275 267 262 259 243 218 204 198 186 170 163 166 166 160 153 148 142 138 134 130 125 120 113 108 105 102 100 98 97 95 96 101 106 111 115 116 115 116 118 118 115 114 116 117 116 119 123 122 121 124 126 124 119 121 131 138 143 157 173 183 197 208 220 243 279 301
259 261 263 263 263 264 265 265 266 268 272 276 280 281 282 281 278 273 267 263 262 258 247 236 227 210 190 183 176 162 149 149 153 151 146 144 139 134 133 131 125 120 117 112 108 106 102 99 98 98 97 97 100 105 110 113 112 112 114 117 118 116 115 115 117 120 123 125 125 126 124 115 105 107 117 118 113 112 108 97 97 172 194 207 326 340 331
256 256 260 261 259 257 256 255 259 266 272 275 276 276 277 276 270 261 256 252 247 239 225 216 211 196 180 176 171 162 152 149 150 149 146 142 136 132 130 127 121 117 113 109 107 105 101 98 98 96 94 94 94 96 100 102 105 113 121 123 124 124 123 123 123 124 126 128 130 130 125 112 98 95 101 101 96 97 96 84 56 32 24 2 356 348 338
255 255 253 250 250 252 252 252 256 263 271 275 274 274 274 267 254 248 245 236 227 215 202 199 196 178 164 164 168 168 165 158 152 147 142 137 132 128 125 121 117 115 111 107 106 103 99 98 97 95 93 93 93 96 97 93 94 100 106 110 114 117 118 119 120 123 128 132 133 129 118 102 91 90 94 94 89 79 65 49 49 50 14 353 356 353 341
252 250 243 240 243 249 252 254 257 263 272 276 274 272 267 253 238 235 229 213 205 199 191 189 181 161 154 157 162 163 160 155 149 144 139 134 128 124 121 118 115 111 108 105 104 102 99 98 97 96 95 95 97 100 100 96 97 99 98 97 98 100 102 102 102 106 114 119 120 116 104 91 82 81 81 79 78 70 45 20 29 32 5 357 3 360 345
246 240 236 236 239 242 245 248 252 259 267 271 267 262 253 234 210 204 197 185 182 180 180 183 173 156 148 146 143 139 136 135 136 134 130 126 122 119 118 116 113 108 103 101 101 100 98 96 94 92 93 94 94 95 92 91 94 98 100 104 108 110 109 105 99 96 98 96 92 89 84 78 76 73 68 63 62 56 36 16 15 13 358 352 355 352 345
236 232 230 230 230 232 235 238 243 251 257 257 247 231 207 170 143 132 131 138 150 160 174 181 170 154 145 139 132 124 116 114 116 117 114 113 112 110 108 107 106 103 101 99 97 95 94 93 91 91 93 95 96 96 93 90 87 87 90 96 102 104 105 102 98 97 97 92 86 81 75 70 65 62 61 60 51 44 32 16 8 5 355 344 342 347 346
234 229 224 221 222 224 226 229 236 241 234 211 184 165 150 137 123 108 101 101 103 107 120 143 147 142 138 133 127 120 114 109 106 104 101 101 102 101 99 98 97 96 96 96 94 92 91 91 89 90 92 95 96 97 98 97 95 93 93 93 93 96 99 98 93 92 89 83 79 77 74 71 65 57 55 55 47 38 29 12 358 354 353 345 339 348 352
228 226 216 209 208 210 215 222 224 214 191 173 159 145 133 127 116 101 93 92 91 89 90 96 106 122 129 126 120 115 111 105 99 95 94 95 95 95 94 93 92 90 90 92 92 91 90 89 87 87 89 90 91 92 93 95 95 95 96 95 92 92 94 92 86 83 81 78 76 73 69 67 65 57 51 48 42 33 23 11 359 355 356 349 341 342 349
222 223 212 202 199 203 208 207 196 181 170 158 145 132 123 118 111 101 94 91 87 81 79 81 81 88 102 108 107 105 102 99 97 96 96 96 96 94 91 89 88 85 84 86 85 81 81 83 83 83 83 84 87 87 85 87 90 90 90 90 87 82 81 81 80 80 79 78 76 72 64 58 55 50 44 39 32 23 13 6 4 4 3 356 346 340 342
191 182 181 184 188 192 187 172 160 157 149 130 118 114 111 108 106 104 100 96 92 86 81 80 78 75 78 86 92 94 93 93 93 94 93 91 91 91 89 89 89 84 79 77 73 70 73 79 81 79 77 80 88 94 89 81 78 80 80 81 82 81 79 80 81 82 81 77 71 67 61 53 47 45 37 28 22 15 7 4 4 1 359 356 348 341 340
120 123 129 138 149 155 152 142 136 133 124 113 108 106 103 101 101 102 101 98 95 93 89 83 77 71 69 73 79 83 85 86 87 87 86 84 84 84 83 83 83 80 74 71 66 62 66 74 74 69 67 72 84 96 96 85 75 74 78 80 83 84 83 82 80 78 77 76 70 65 62 57 51 47 39 31 26 18 8 4 1 354 351 353 350 345 347
83 94 95 93 108 123 124 117 113 112 110 108 107 105 102 98 96 97 98 96 93 92 91 86 79 72 67 67 71 74 77 80 81 84 83 80 79 78 74 71 71 69 65 63 60 56 62 73 74 66 60 60 65 79 89 85 77 74 76 78 80 81 79 77 74 69 68 68 66 62 58 52 46 46 49 48 41 28 15 9 6 358 352 352 353 353 357
69 81 89 87 89 96 100 98 99 101 100 98 98 98 98 96 93 92 93 92 90 88 87 85 82 78 73 70 69 69 70 72 74 77 77 75 74 73 67 62 62 62 58 58 62 61 60 69 77 74 66 57 54 65 80 82 77 74 75 75 76 76 73 70 68 65 62 60 59 56 53 49 44 43 42 37 30 21 11 7 9 9 8 6 3 359 1
57 67 78 80 78 83 88 88 87 89 90 90 89 89 91 93 92 91 91 90 89 87 86 84 83 80 76 73 70 68 68 69 71 73 74 74 75 74 69 63 62 61 60 65 75 76 70 68 72 76 75 66 56 60 73 77 74 73 74 73 73 72 69 67 66 62 58 56 55 52 50 49 46 42 38 32 28 24 19 11 8 15 22 19 9 1 4
54 58 65 69 69 73 79 82 83 84 85 85 84 84 86 89 90 89 87 86 86 85 83 81 78 75 73 71 70 68 68 70 71 73 74 76 77 75 71 65 61 61 64 71 78 82 81 76 71 70 74 72 65 61 64 69 70 71 71 70 70 69 66 64 63 59 56 55 54 51 49 47 45 40 37 36 35 32 25 16 5 7 24 29 22 18 33
59 59 62 65 67 69 74 79 82 83 82 82 81 80 81 82 83 84 83 83 83 83 83 80 77 74 71 71 70 68 68 69 70 70 71 71 70 69 66 62 58 60 67 73 75 79 83 82 77 72 69 67 66 65 64 64 66 67 67 67 67 66 65 63 61 58 55 54 53 51 49 47 45 41 36 35 35 33 26 17 13 19 34 35 17 19 63
65 65 66 68 70 72 74 77 79 80 79 79 78 78 78 78 79 80 80 79 78 78 80 81 80 78 74 70 68 67 65 65 67 68 68 66 64 62 60 59 58 61 66 69 71 72 74 76 79 77 72 68 66 67 68 66 65 64 64 65 64 64 64 63 60 58 56 54 52 52 51 49 47 44 39 35 34 32 28 25 30 42 52 45 3 345 85
68 70 71 73 75 75 75 76 77 77 77 76 76 77 77 78 79 80 80 79 78 77 77 78 79 78 75 70 66 63 60 59 62 66 68 67 66 63 61 60 62 65 65 64 65 68 70 71 73 76 78 78 74 70 66 65 64 63 62 63 62 62 63 62 61 59 57 54 52 52 53 52 50 47 44 41 38 36 37 41 50 59 66 67 65 69 96
69 70 71 74 77 77 77 76 76 77 77 77 77 77 77 78 79 80 82 84 84 83 81 77 73 71 70 69 66 62 59 58 60 64 68 69 67 65 64 64 65 66 67 67 67 68 70 71 70 71 73 77 77 72 66 63 62 62 62 61 61 61 60 60 60 59 57 55 54 55 58 59 57 52 49 48 46 45 46 52 62 72 79 83 82 80 81
73 73 73 75 75 76 76 77 76 77 79 78 77 77 77 78 79 80 81 82 83 83 82 79 73 69 67 66 64 63 63 63 62 64 68 69 67 64 63 64 65 65 66 69 71 72 71 71 71 70 68 67 68 69 67 63 62 62 61 60 60 60 60 59 59 58 58 58 58 59 61 65 66 64 63 62 60 56 53 52 57 64 70 76 80 80 77
73 75 76 77 75 74 75 77 78 79 79 75 71 69 70 73 76 77 78 78 78 79 79 79 77 75 74 72 68 66 65 65 63 64 67 71 72 69 64 60 59 60 62 64 67 70 72 70 67 65 64 62 62 62 62 62 64 65 64 62 61 60 59 59 58 58 57 57 57 57 57 58 61 65 69 71 70 67 64 60 57 58 61 64 68 72 72
67 69 70 70 70 70 73 75 74 72 69 65 62 60 61 65 69 72 74 75 75 75 76 77 76 77 79 80 76 70 66 62 60 61 63 69 74 76 71 63 55 53 55 58 59 62 68 71 67 61 58 57 58 58 58 59 61 64 66 66 65 62 61 59 59 58 58 59 57 55 54 54 54 56 60 63 64 65 65 64 61 59 59 62 65 66 67
60 61 62 63 64 64 65 64 62 59 57 58 58 59 60 62 64 64 65 67 68 67 67 67 67 67 70 73 74 73 70 65 61 57 56 60 67 75 80 80 71 60 55 56 57 57 61 67 67 62 57 56 56 56 56 57 57 58 60 63 63 62 62 61 59 58 58 59 58 57 55 54 53 52 51 51 53 54 55 57 58 57 54 54 55 56 58
52 55 58 60 60 58 56 54 53 52 52 54 56 57 59 61 61 60 59 60 60 60 59 58 57 56 57 59 61 64 67 66 63 60 58 59 62 68 77 84 83 73 62 57 56 56 58 61 61 58 56 56 56 55 55 56 56 56 56 56 56 56 57 58 59 59 58 57 57 56 55 53 53 53 50 48 47 46 45 46 48 50 51 52 53 51 50
47 50 52 52 53 53 53 52 50 49 49 50 51 52 55 57 57 54 52 52 54 56 56 53 50 49 49 49 50 54 57 60 63 64 62 58 56 57 60 64 66 65 61 56 52 52 53 56 56 53 52 53 55 55 54 55 55 55 55 55 54 54 53 52 52 54 55 54 53 53 52 50 49 49 48 47 46 43 40 38 36 36 39 43 46 48 50
43 44 45 47 48 48 50 51 50 48 48 48 49 49 50 52 52 50 49 48 47 46 45 45 44 42 41 42 45 47 48 51 55 61 66 64 58 54 52 51 51 53 53 52 50 47 47 51 55 55 52 52 53 53 53 53 53 52 52 51 50 49 49 49 47 48 49 50 50 49 48 47 45 43 41 41 39 37 35 33 30 27 26 27 28 31 36
44 41 40 43 45 44 45 46 46 45 45 45 45 45 46 47 47 45 44 43 40 37 35 37 36 35 36 39 40 41 43 46 47 49 56 61 58 52 47 46 46 46 45 45 46 45 43 44 48 51 51 51 50 49 48 48 49 48 48 47 45 43 42 41 42 41 41 41 41 41 40 39 38 36 34 31 29 28 28 27 25 24 23 21 20 20 22